When you browse on this site, cookies collect data to enhance your experience and personalize the content and advertising you see.
Visit our Privacy Policy to learn more. By continuing to use the site, you agree to this use of cookies and data.
EN

Hourly Weather Weilheim in Oberbayern

Today, 3 July, Friday

Time Temperature Precipitation Wind Pressure Humidity
00:00 +16°C° 1.8 mm 2 mps 711 mmHg 96%
01:00 +16°C° 1.8 mm 1 mps 712 mmHg 97%
02:00 +15°C° 0.4 mm 1 mps 712 mmHg 97%
03:00 +15°C° 0.4 mm 1 mps 712 mmHg 97%
04:00 +15°C° 0.4 mm 1 mps 712 mmHg 97%
05:00 +15°C° 0.1 mm 1 mps 712 mmHg 96%
06:00 +15°C° 0.1 mm 1 mps 712 mmHg 95%
07:00 +15°C° 0.1 mm 1 mps 712 mmHg 94%
08:00 +16°C° 0.1 mm 1 mps 713 mmHg 88%
09:00 +18°C° 0.1 mm 1 mps 713 mmHg 81%
10:00 +20°C° 0.1 mm 1 mps 713 mmHg 75%
11:00 +19°C° 0.1 mm 2 mps 713 mmHg 70%
12:00 +20°C° 0.1 mm 2 mps 713 mmHg 65%
13:00 +21°C° 0.1 mm 2 mps 713 mmHg 61%
14:00 +21°C° 0.2 mm 2 mps 713 mmHg 63%
15:00 +21°C° 0.2 mm 2 mps 713 mmHg 65%
16:00 +21°C° 0.2 mm 2 mps 713 mmHg 67%
17:00 +20°C° 0.2 mm 2 mps 713 mmHg 73%
18:00 +20°C° 0.2 mm 1 mps 713 mmHg 79%
19:00 +19°C° 0.2 mm 1 mps 713 mmHg 84%
20:00 +16°C° 0 mm 0 mps 713 mmHg 87%
21:00 +15°C° 0 mm 0 mps 713 mmHg 89%
22:00 +14°C° 0 mm 0 mps 714 mmHg 92%
23:00 +13°C° 0 mm 0 mps 714 mmHg 92%

Tomorrow, 4 July, Saturday

Time Temperature Precipitation Wind Pressure Humidity
00:00 +13°C° 0 mm 0 mps 714 mmHg 93%
01:00 +12°C° 0 mm 0 mps 714 mmHg 93%
02:00 +12°C° 0 mm 0 mps 714 mmHg 94%
03:00 +12°C° 0 mm 0 mps 714 mmHg 94%
04:00 +12°C° 0 mm 0 mps 714 mmHg 95%
05:00 +13°C° 0 mm 0 mps 714 mmHg 92%
06:00 +14°C° 0 mm 0 mps 714 mmHg 89%
07:00 +15°C° 0 mm 0 mps 714 mmHg 86%
08:00 +19°C° 0 mm 1 mps 714 mmHg 78%
09:00 +21°C° 0 mm 1 mps 715 mmHg 69%
10:00 +23°C° 0 mm 1 mps 715 mmHg 61%
11:00 +23°C° 0 mm 1 mps 715 mmHg 60%
12:00 +23°C° 0 mm 1 mps 714 mmHg 59%
13:00 +24°C° 0 mm 1 mps 714 mmHg 58%
14:00 +24°C° 0 mm 2 mps 714 mmHg 59%
15:00 +24°C° 0 mm 2 mps 714 mmHg 60%
16:00 +24°C° 0 mm 2 mps 714 mmHg 61%
17:00 +23°C° 0.1 mm 1 mps 714 mmHg 68%
18:00 +22°C° 0.1 mm 1 mps 713 mmHg 75%
19:00 +21°C° 0.1 mm 1 mps 713 mmHg 82%
20:00 +20°C° 0 mm 1 mps 714 mmHg 85%
21:00 +18°C° 0 mm 1 mps 714 mmHg 88%
22:00 +16°C° 0 mm 1 mps 714 mmHg 92%
23:00 +15°C° 0 mm 2 mps 714 mmHg 91%

Day after tomorrow, 5 July, Sunday

Time Temperature Precipitation Wind Pressure Humidity
00:00 +15°C° 0 mm 2 mps 714 mmHg 91%
01:00 +15°C° 0 mm 2 mps 714 mmHg 90%
02:00 +14°C° 0 mm 2 mps 714 mmHg 90%
03:00 +14°C° 0 mm 2 mps 714 mmHg 90%
04:00 +14°C° 0 mm 2 mps 714 mmHg 89%
05:00 +15°C° 0 mm 2 mps 714 mmHg 86%
06:00 +17°C° 0 mm 2 mps 714 mmHg 82%
07:00 +18°C° 0 mm 2 mps 714 mmHg 78%
08:00 +19°C° 0 mm 2 mps 714 mmHg 75%
09:00 +20°C° 0 mm 2 mps 714 mmHg 71%
10:00 +21°C° 0 mm 2 mps 714 mmHg 67%
11:00 +23°C° 0 mm 2 mps 714 mmHg 64%
12:00 +24°C° 0 mm 2 mps 714 mmHg 61%
13:00 +24°C° 0 mm 3 mps 714 mmHg 57%
14:00 +25°C° 0 mm 3 mps 714 mmHg 57%
15:00 +26°C° 0 mm 3 mps 713 mmHg 56%
16:00 +26°C° 0 mm 3 mps 713 mmHg 55%
17:00 +25°C° 0 mm 3 mps 713 mmHg 63%
18:00 +24°C° 0 mm 2 mps 713 mmHg 70%
19:00 +23°C° 0 mm 2 mps 713 mmHg 78%
20:00 +21°C° 0 mm 2 mps 713 mmHg 82%
21:00 +19°C° 0 mm 2 mps 713 mmHg 87%
22:00 +18°C° 0 mm 1 mps 713 mmHg 91%
23:00 +18°C° 0 mm 1 mps 713 mmHg 92%

6 July, Monday

Time Temperature Precipitation Wind Pressure Humidity
00:00 +18°C° 0 mm 1 mps 713 mmHg 93%
01:00 +16°C° 0 mm 1 mps 712 mmHg 94%
02:00 +16°C° 0 mm 1 mps 712 mmHg 94%
03:00 +16°C° 0 mm 1 mps 712 mmHg 94%
04:00 +16°C° 0 mm 1 mps 712 mmHg 94%
05:00 +17°C° 0 mm 2 mps 711 mmHg 90%
06:00 +18°C° 0 mm 2 mps 711 mmHg 86%
07:00 +19°C° 0 mm 2 mps 711 mmHg 82%
08:00 +20°C° 0 mm 2 mps 711 mmHg 79%
09:00 +21°C° 0 mm 3 mps 711 mmHg 76%
10:00 +22°C° 0 mm 3 mps 711 mmHg 72%
11:00 +23°C° 0.1 mm 4 mps 711 mmHg 70%
12:00 +23°C° 0.1 mm 4 mps 711 mmHg 67%
13:00 +25°C° 0.1 mm 4 mps 711 mmHg 64%
14:00 +22°C° 0.2 mm 4 mps 711 mmHg 70%
15:00 +21°C° 0.2 mm 4 mps 711 mmHg 76%
16:00 +19°C° 0.2 mm 4 mps 710 mmHg 82%
17:00 +18°C° 0.8 mm 3 mps 711 mmHg 84%
18:00 +17°C° 0.8 mm 3 mps 711 mmHg 87%
19:00 +16°C° 0.8 mm 2 mps 711 mmHg 89%
20:00 +15°C° 0.8 mm 2 mps 712 mmHg 87%
21:00 +14°C° 0.8 mm 2 mps 712 mmHg 86%
22:00 +14°C° 0.8 mm 2 mps 713 mmHg 84%
23:00 +13°C° 0.1 mm 2 mps 713 mmHg 87%

7 July, Tuesday

Time Temperature Precipitation Wind Pressure Humidity
00:00 +12°C° 0.1 mm 2 mps 713 mmHg 90%
01:00 +11°C° 0.1 mm 1 mps 714 mmHg 93%
02:00 +11°C° 0.1 mm 1 mps 714 mmHg 93%
03:00 +11°C° 0.1 mm 1 mps 714 mmHg 94%
04:00 +10°C° 0.1 mm 1 mps 714 mmHg 94%
05:00 +11°C° 0 mm 1 mps 714 mmHg 92%
06:00 +12°C° 0 mm 1 mps 714 mmHg 89%
07:00 +13°C° 0 mm 1 mps 715 mmHg 87%
08:00 +15°C° 0 mm 1 mps 715 mmHg 77%
09:00 +16°C° 0 mm 1 mps 714 mmHg 67%
10:00 +19°C° 0 mm 1 mps 714 mmHg 56%
11:00 +19°C° 0 mm 2 mps 714 mmHg 54%
12:00 +19°C° 0 mm 2 mps 714 mmHg 52%
13:00 +19°C° 0 mm 2 mps 714 mmHg 50%
14:00 +19°C° 0 mm 2 mps 714 mmHg 52%
15:00 +20°C° 0 mm 3 mps 714 mmHg 53%
16:00 +20°C° 0 mm 3 mps 714 mmHg 54%
17:00 +19°C° 0 mm 2 mps 714 mmHg 60%
18:00 +18°C° 0 mm 2 mps 714 mmHg 67%
19:00 +18°C° 0 mm 1 mps 714 mmHg 74%
20:00 +15°C° 0 mm 1 mps 714 mmHg 80%
21:00 +13°C° 0 mm 1 mps 714 mmHg 86%
22:00 +10°C° 0 mm 0 mps 715 mmHg 92%
23:00 +10°C° 0 mm 0 mps 714 mmHg 93%

8 July, Wednesday

Time Temperature Precipitation Wind Pressure Humidity
00:00 +9°C° 0 mm 0 mps 714 mmHg 93%
01:00 +9°C° 0 mm 0 mps 714 mmHg 93%
02:00 +9°C° 0 mm 0 mps 714 mmHg 94%
03:00 +8°C° 0 mm 0 mps 714 mmHg 94%
04:00 +8°C° 0 mm 0 mps 714 mmHg 94%
05:00 +10°C° 0 mm 0 mps 714 mmHg 89%
06:00 +12°C° 0 mm 0 mps 714 mmHg 83%
07:00 +13°C° 0 mm 0 mps 714 mmHg 78%
08:00 +16°C° 0 mm 1 mps 715 mmHg 70%
09:00 +19°C° 0 mm 1 mps 715 mmHg 62%
10:00 +20°C° 0 mm 2 mps 715 mmHg 54%
11:00 +21°C° 0 mm 2 mps 714 mmHg 51%
12:00 +21°C° 0 mm 2 mps 714 mmHg 48%
13:00 +22°C° 0 mm 3 mps 714 mmHg 45%
14:00 +22°C° 0 mm 3 mps 714 mmHg 46%
15:00 +22°C° 0 mm 3 mps 714 mmHg 48%
16:00 +22°C° 0 mm 3 mps 714 mmHg 49%
17:00 +21°C° 0 mm 2 mps 713 mmHg 57%
18:00 +20°C° 0 mm 2 mps 713 mmHg 65%
19:00 +18°C° 0 mm 2 mps 713 mmHg 72%
20:00 +18°C° 0 mm 1 mps 713 mmHg 78%
21:00 +15°C° 0 mm 1 mps 713 mmHg 83%
22:00 +13°C° 0 mm 1 mps 713 mmHg 89%
23:00 +13°C° 0 mm 1 mps 713 mmHg 90%
Show more